Showing default

QIANFAN-70, 62800

Orbit data source: Space-Track

QIANFAN-70, 62800 is a Chinese payload satellite in LEO that was launched on Thu, 23 Jan 2025 UTC via a CHANG ZHENG 6A launch vehicle from the Taiyaun Space Center, China (TSC). Payload-class satellites include a variety of spacecraft equipped with specific instruments for various scientific and technological missions. These include communications satellites like Starlink; space stations such as the ISS; scientific satellites like the Hubble; Earth observation satellites from companies like Planet Labs, Umbra, and HawkEye 360; GPS; miniature CubeSats for education and research; and military/defense satellites.

Loading next visibility...
Identifier
62800, 2025-016R
Orbit
LEO
Country
Flag of CNCN / PRC
Related business
Manufacturer
SECM
Mission
Operational Commercial Communications
Bus & Motor
QIANFAN, Unknown motor
Mass
267 kg wet, ~267 kg dry
Launch date (UTC)
2025-01-23 (10 months ago)
Launch vehicle
CHANG ZHENG 6A
Launch site
Taiyaun Space Center, China (TSC)
Object type
Payload
Rocket body
Debris
Shape & HBR
Box + 1 Pan, 1.3 m
Radar Cross Section
13.200 m², Large (>1 m²)

Expand to show TLE details & history
Last TLE update: 8 hours ago

TLE from 8 hours ago
0 QIANFAN-70
1 62800U 25016R   25340.64082399  .00000192  00000-0  27938-3 0  9999
2 62800  88.9772 103.7368 0014885 359.1024   1.0098 13.50975178 46416
Epoch: 2025-12-06T15:22Z
TLE epoch observation values (Epoch: 2025-12-06T15:22:47.192Z)
Latitude
-0.00002°
Longitude
157.37451°
Altitude
1,060.541 km
Speed
7.327 km/s
True Right ascension
06h 54m 56s
True Declination
0° 00' 00"
Sunlit
Object was in full shadow at epoch
Visualization orbit readout
Latitude
Unknown
Longitude
Unknown
Altitude
Unknown
Speed
Unknown
Apparent Right ascension
Unknown
Apparent Declination
Unknown
Sunlit
N/A
Visualization observer readout
Local Sidereal Time
21:38:10
Azimuth
Unknown
Elevation
Unknown
Doppler factor
Unknown
Orbital elements
Apogee altitude
1,076.804 km
Perigee altitude
1,054.644 km
Semi-major axis
7,443.861 km
Eccentricity
0.00149
Inclination
88.9772°
RAAN
103.7368°
Arg. of periapsis
359.1024°
True anomaly
1.01281°
Mean anomaly
1.0098°
Eccentric anomaly
1.01131°
Mean motion
3.37945 °/min
Orbital period
106.53 mins
BSTAR
0.00027938
Loading maneuver chart data...
Computing Atmospheric mass density...
Loading historical data...
Loading historical data...
Loading historical data...
Loading historical data...
Loading historical data...
Loading historical data...
Loading historical data...

Documentation

Showing up to 5 results
|